Flag for United Kingdom Weather past 2 weeks in Telford, England, United Kingdom

Now
54 °F

Passing clouds.


Feels Like: 49 °F
Forecast: 50 / 58 °F
Wind: 18 mph from Southwest

Location: Shawbury

Current Time: Oct 25, 2014 at 11:58:22 PM

Latest Report: Oct 25, 2014 at 10:50 PM


Visibility: N/A

Pressure: 30.01 "Hg

Humidity: 77%

Dew point: 46 °F

Location of TelfordLocation

Historic Weather in Telford — Graph

°F

Telford temperature yesterday

Maximum temperature yesterday: 57 °F (at 2:50 AM)
Minimum temperature yesterday: 46 °F (at 10:50 PM)
Average temperature yesterday: 54 °F

Past Weeks' High & Low Weather Summary

 TemperatureHumidityPressure
High66 °F (Oct 18, 1:50 PM)100% (Oct 11, 2:50 AM)30.24 "Hg (Oct 11, 2:50 AM)
Low34 °F (Oct 12, 4:50 AM)58% (Oct 21, 12:50 PM)29.42 "Hg (Oct 21, 4:50 AM)
Average53 °F85%29.79 "Hg
* Reported Oct 10 9:50 PM — Oct 25 9:50 PM, Telford, Weather by CustomWeather, © 2014

Note: Actual official high and low records may vary slightly from our data, if they occured in-between our weather recording intervals... More about our weather records

Advertising

Telford weather history for previous 24 hours

 ConditionsComfort  
Time TempWeatherWind HumidityBarometerVisibility
9:50 PM
Oct 25
52 °FPassing clouds.16 mph82%30.01 "HgN/A
8:50 PM52 °FPassing clouds.10 mph82%30.01 "HgN/A
7:50 PM54 °FPassing clouds.13 mph82%30.01 "HgN/A
6:50 PM54 °FBroken clouds.15 mph82%30.01 "HgN/A
5:50 PM52 °FSprinkles. Scattered clouds.17 mph88%29.98 "HgN/A
4:50 PM55 °FCool.18 mph72%29.98 "HgN/A
3:50 PM57 °FPassing clouds.22 mph67%29.95 "HgN/A
2:50 PM57 °FPassing clouds.17 mph77%29.95 "HgN/A
1:50 PM59 °FPartly sunny.18 mph68%29.98 "HgN/A
12:50 PM57 °FPartly sunny.20 mph72%29.95 "HgN/A
11:50 AM55 °FPartly sunny.15 mph77%29.98 "HgN/A
10:50 AM54 °FBroken clouds.14 mph77%29.98 "HgN/A
9:50 AM50 °FScattered clouds.8 mph82%29.95 "HgN/A
8:50 AM48 °FPassing clouds.9 mph87%29.95 "HgN/A
7:50 AM46 °FPassing clouds.6 mph93%29.95 "HgN/A
6:50 AM48 °FPassing clouds.9 mph82%29.95 "HgN/A
5:50 AM46 °FPassing clouds.10 mph87%29.95 "HgN/A
4:50 AM46 °FPassing clouds.1 mph87%29.95 "HgN/A
3:50 AM46 °FCool.6 mph87%29.95 "HgN/A
2:50 AM46 °FPassing clouds.6 mph93%29.95 "HgN/A
1:50 AM48 °FPassing clouds.6 mph87%29.95 "HgN/A
12:50 AM45 °FPassing clouds.2 mph93%29.95 "HgN/A
11:50 PM
Oct 24
46 °FPassing clouds.2 mph93%29.95 "HgN/A
Weather by CustomWeather, © 2014

See weather overviewHow to use our weather pages